Time,TemperatureF,DewpointF,PressureIn,WindDirection,WindDirectionDegrees,WindSpeedMPH,WindSpeedGustMPH,Humidity,HourlyPrecipIn,Conditions,Clouds,dailyrainin,SoftwareType,DateUTC
2015-08-29 00:02:00,64.9,44.2,30.03,SSW,202,1.3,1.3,47,0.00,,,0.00,VWS V15.00,2015-08-29 04:02:00,
2015-08-29 00:07:00,64.8,44.6,30.03,SSW,202,0.9,0.9,48,0.00,,,0.00,VWS V15.00,2015-08-29 04:07:00,
2015-08-29 00:12:00,64.8,44.6,30.03,SSW,202,0.0,0.0,48,0.00,,,0.00,VWS V15.00,2015-08-29 04:12:00,
2015-08-29 00:17:00,64.4,44.3,30.03,SSW,202,0.0,0.0,48,0.00,,,0.00,VWS V15.00,2015-08-29 04:17:00,
2015-08-29 00:22:00,64.2,44.1,30.03,SSW,202,0.0,0.0,48,0.00,,,0.00,VWS V15.00,2015-08-29 04:22:00,
2015-08-29 00:27:00,64.2,44.1,30.03,SSW,202,0.0,0.0,48,0.00,,,0.00,VWS V15.00,2015-08-29 04:27:00,
2015-08-29 00:32:00,63.9,44.3,30.03,SSW,202,1.1,1.1,49,0.00,,,0.00,VWS V15.00,2015-08-29 04:32:00,
2015-08-29 00:37:00,63.9,44.3,30.03,SSW,202,0.0,0.0,49,0.00,,,0.00,VWS V15.00,2015-08-29 04:37:00,
2015-08-29 00:42:00,63.9,44.3,30.03,SSW,202,0.9,0.9,49,0.00,,,0.00,VWS V15.00,2015-08-29 04:42:00,
2015-08-29 00:47:00,63.9,44.3,30.03,SW,225,1.3,1.3,49,0.00,,,0.00,VWS V15.00,2015-08-29 04:47:00,
2015-08-29 00:52:00,63.9,44.9,30.03,SSW,202,1.3,1.3,50,0.00,,,0.00,VWS V15.00,2015-08-29 04:52:00,
2015-08-29 00:57:00,63.9,44.9,30.03,SSW,202,1.1,1.1,50,0.00,,,0.00,VWS V15.00,2015-08-29 04:57:00,
2015-08-29 01:02:00,63.7,44.7,30.03,SSW,202,2.0,2.0,50,0.00,,,0.00,VWS V15.00,2015-08-29 05:02:00,
2015-08-29 01:07:00,63.9,44.9,30.03,SSW,202,0.0,0.0,50,0.00,,,0.00,VWS V15.00,2015-08-29 05:07:00,
2015-08-29 01:12:00,63.9,44.9,30.03,South,180,1.1,1.1,50,0.00,,,0.00,VWS V15.00,2015-08-29 05:12:00,
2015-08-29 01:17:00,63.9,44.9,30.03,SSW,202,1.3,1.3,50,0.00,,,0.00,VWS V15.00,2015-08-29 05:17:00,
2015-08-29 01:22:00,63.9,44.9,30.03,SSW,202,1.1,1.1,50,0.00,,,0.00,VWS V15.00,2015-08-29 05:22:00,
2015-08-29 01:27:00,63.9,45.4,30.03,SW,225,0.0,0.0,51,0.00,,,0.00,VWS V15.00,2015-08-29 05:27:00,
2015-08-29 01:32:00,63.7,44.7,30.03,SSW,202,1.3,1.3,50,0.00,,,0.00,VWS V15.00,2015-08-29 05:32:00,
2015-08-29 01:37:00,63.7,45.2,30.03,SE,135,1.6,1.6,51,0.00,,,0.00,VWS V15.00,2015-08-29 05:37:00,
2015-08-29 01:47:00,63.7,45.2,30.03,SW,225,2.0,2.0,51,0.00,,,0.00,VWS V15.00,2015-08-29 05:47:00,
2015-08-29 01:52:00,63.7,45.2,30.03,SW,225,0.0,0.0,51,0.00,,,0.00,VWS V15.00,2015-08-29 05:52:00,
2015-08-29 01:57:00,63.5,45.1,30.03,SSW,202,0.0,0.0,51,0.00,,,0.00,VWS V15.00,2015-08-29 05:57:00,
2015-08-29 02:02:00,63.5,45.1,30.03,SSW,202,0.0,0.0,51,0.00,,,0.00,VWS V15.00,2015-08-29 06:02:00,
2015-08-29 02:07:00,63.5,45.6,30.03,SSW,202,0.0,0.0,52,0.00,,,0.00,VWS V15.00,2015-08-29 06:07:00,
2015-08-29 02:12:00,63.3,45.4,30.03,SSW,202,0.0,0.0,52,0.00,,,0.00,VWS V15.00,2015-08-29 06:12:00,
2015-08-29 02:17:00,63.3,45.4,30.03,SSW,202,0.0,0.0,52,0.00,,,0.00,VWS V15.00,2015-08-29 06:17:00,
2015-08-29 02:22:00,63.3,45.9,30.03,SSW,202,0.0,0.0,53,0.00,,,0.00,VWS V15.00,2015-08-29 06:22:00,
2015-08-29 02:27:00,63.3,45.9,30.03,SSW,202,0.0,0.0,53,0.00,,,0.00,VWS V15.00,2015-08-29 06:27:00,
2015-08-29 02:32:00,63.5,46.1,30.03,WSW,248,0.9,0.9,53,0.00,,,0.00,VWS V15.00,2015-08-29 06:32:00,
2015-08-29 02:37:00,63.5,46.1,30.03,SSW,202,1.6,1.6,53,0.00,,,0.00,VWS V15.00,2015-08-29 06:37:00,
2015-08-29 02:42:00,63.9,46.4,30.03,SW,225,1.6,1.6,53,0.00,,,0.00,VWS V15.00,2015-08-29 06:42:00,
2015-08-29 02:47:00,63.9,46.4,30.03,SSW,202,1.6,1.6,53,0.00,,,0.00,VWS V15.00,2015-08-29 06:47:00,
2015-08-29 02:52:00,64.0,46.6,30.03,SW,225,1.3,1.3,53,0.00,,,0.00,VWS V15.00,2015-08-29 06:52:00,
2015-08-29 02:57:00,64.0,46.1,30.03,SW,225,3.4,3.4,52,0.00,,,0.00,VWS V15.00,2015-08-29 06:57:00,
2015-08-29 03:02:00,64.2,46.2,30.03,SSW,202,0.0,0.0,52,0.00,,,0.00,VWS V15.00,2015-08-29 07:02:00,
2015-08-29 03:07:00,64.2,46.2,30.03,SSW,202,1.1,1.1,52,0.00,,,0.00,VWS V15.00,2015-08-29 07:07:00,
2015-08-29 03:12:00,64.2,46.2,30.00,WSW,248,0.0,0.0,52,0.00,,,0.00,VWS V15.00,2015-08-29 07:12:00,
2015-08-29 03:17:00,64.2,46.2,30.00,WSW,248,0.0,0.0,52,0.00,,,0.00,VWS V15.00,2015-08-29 07:17:00,
2015-08-29 03:22:00,64.2,46.2,30.00,WSW,248,0.0,0.0,52,0.00,,,0.00,VWS V15.00,2015-08-29 07:22:00,
2015-08-29 03:27:00,64.0,46.1,30.00,South,180,0.0,0.0,52,0.00,,,0.00,VWS V15.00,2015-08-29 07:27:00,
2015-08-29 03:32:00,64.0,46.6,30.00,SW,225,0.0,0.0,53,0.00,,,0.00,VWS V15.00,2015-08-29 07:32:00,
2015-08-29 03:37:00,64.0,46.6,30.00,SW,225,0.0,0.0,53,0.00,,,0.00,VWS V15.00,2015-08-29 07:37:00,
2015-08-29 03:42:00,64.0,46.6,30.00,SW,225,1.3,1.3,53,0.00,,,0.00,VWS V15.00,2015-08-29 07:42:00,
2015-08-29 03:47:00,64.0,46.6,30.00,SSW,202,1.3,1.3,53,0.00,,,0.00,VWS V15.00,2015-08-29 07:47:00,
2015-08-29 03:52:00,64.0,46.6,30.00,SSW,202,0.9,0.9,53,0.00,,,0.00,VWS V15.00,2015-08-29 07:52:00,
2015-08-29 03:57:00,64.0,46.6,30.00,SSW,202,1.6,1.6,53,0.00,,,0.00,VWS V15.00,2015-08-29 07:57:00,
2015-08-29 04:02:00,64.0,46.6,30.00,South,180,0.0,0.0,53,0.00,,,0.00,VWS V15.00,2015-08-29 08:02:00,
2015-08-29 04:07:00,64.0,46.6,30.00,SSW,202,2.5,2.5,53,0.00,,,0.00,VWS V15.00,2015-08-29 08:07:00,
2015-08-29 04:12:00,64.2,47.2,30.00,SSW,202,0.0,0.0,54,0.00,,,0.00,VWS V15.00,2015-08-29 08:12:00,
2015-08-29 04:17:00,64.2,47.2,30.00,SSW,202,1.3,1.3,54,0.00,,,0.00,VWS V15.00,2015-08-29 08:17:00,
2015-08-29 04:22:00,64.0,47.1,30.00,SSW,202,0.0,0.0,54,0.00,,,0.00,VWS V15.00,2015-08-29 08:22:00,
2015-08-29 04:27:00,64.0,47.1,30.00,SSW,202,1.1,1.1,54,0.00,,,0.00,VWS V15.00,2015-08-29 08:27:00,
2015-08-29 04:32:00,64.0,47.1,30.00,SSW,202,1.3,1.3,54,0.00,,,0.00,VWS V15.00,2015-08-29 08:32:00,
2015-08-29 04:37:00,64.0,47.1,30.00,SSW,202,0.0,0.0,54,0.00,,,0.00,VWS V15.00,2015-08-29 08:37:00,
2015-08-29 04:42:00,64.0,47.6,30.00,SSW,202,0.0,0.0,55,0.00,,,0.00,VWS V15.00,2015-08-29 08:42:00,
2015-08-29 04:47:00,64.0,47.6,30.00,SW,225,2.7,2.7,55,0.00,,,0.00,VWS V15.00,2015-08-29 08:47:00,
2015-08-29 04:52:00,64.0,47.6,30.00,SW,225,0.0,0.0,55,0.00,,,0.00,VWS V15.00,2015-08-29 08:52:00,
2015-08-29 04:57:00,64.0,47.6,30.00,SSW,202,0.0,0.0,55,0.00,,,0.00,VWS V15.00,2015-08-29 08:57:00,
2015-08-29 05:02:00,64.0,47.6,30.00,SSW,202,0.0,0.0,55,0.00,,,0.00,VWS V15.00,2015-08-29 09:02:00,
2015-08-29 05:07:00,64.0,47.6,30.00,SW,225,2.5,2.5,55,0.00,,,0.00,VWS V15.00,2015-08-29 09:07:00,
2015-08-29 05:12:00,64.0,47.6,30.00,SSW,202,0.0,0.0,55,0.00,,,0.00,VWS V15.00,2015-08-29 09:12:00,
2015-08-29 05:17:00,64.0,47.6,30.00,SSW,202,0.0,0.0,55,0.00,,,0.00,VWS V15.00,2015-08-29 09:17:00,
2015-08-29 05:22:00,64.0,47.6,30.00,SSW,202,0.0,0.0,55,0.00,,,0.00,VWS V15.00,2015-08-29 09:22:00,
2015-08-29 05:27:00,64.0,47.6,30.00,SSW,202,0.0,0.0,55,0.00,,,0.00,VWS V15.00,2015-08-29 09:27:00,
2015-08-29 05:32:00,64.0,47.6,30.00,SSW,202,0.0,0.0,55,0.00,,,0.00,VWS V15.00,2015-08-29 09:32:00,
2015-08-29 05:37:00,63.9,47.9,30.00,SSW,202,0.0,0.0,56,0.00,,,0.00,VWS V15.00,2015-08-29 09:37:00,
2015-08-29 05:42:00,63.9,47.9,30.03,SSW,202,1.6,1.6,56,0.00,,,0.00,VWS V15.00,2015-08-29 09:42:00,
2015-08-29 05:47:00,63.7,47.7,30.03,SSW,202,0.0,0.0,56,0.00,,,0.00,VWS V15.00,2015-08-29 09:47:00,
2015-08-29 05:52:00,63.7,47.7,30.03,SSW,202,0.0,0.0,56,0.00,,,0.00,VWS V15.00,2015-08-29 09:52:00,
2015-08-29 05:57:00,63.5,47.5,30.03,SSW,202,0.0,0.0,56,0.00,,,0.00,VWS V15.00,2015-08-29 09:57:00,
2015-08-29 06:03:00,63.7,47.7,30.03,SSW,202,1.1,1.1,56,0.00,,,0.00,VWS V15.00,2015-08-29 10:03:00,
2015-08-29 06:08:00,63.9,47.9,30.03,SSW,202,0.0,0.0,56,0.00,,,0.00,VWS V15.00,2015-08-29 10:08:00,
2015-08-29 06:13:00,63.9,47.9,30.03,SSW,202,1.3,1.3,56,0.00,,,0.00,VWS V15.00,2015-08-29 10:13:00,
2015-08-29 06:18:00,63.9,47.9,30.03,SW,225,0.9,0.9,56,0.00,,,0.00,VWS V15.00,2015-08-29 10:18:00,
2015-08-29 06:23:00,63.9,47.9,30.03,SSW,202,0.9,0.9,56,0.00,,,0.00,VWS V15.00,2015-08-29 10:23:00,
2015-08-29 06:28:00,64.0,48.0,30.03,SSW,202,0.0,0.0,56,0.00,,,0.00,VWS V15.00,2015-08-29 10:28:00,
2015-08-29 06:33:00,63.9,47.9,30.03,SSW,202,0.0,0.0,56,0.00,,,0.00,VWS V15.00,2015-08-29 10:33:00,
2015-08-29 06:38:00,63.9,47.9,30.03,South,180,0.0,0.0,56,0.00,,,0.00,VWS V15.00,2015-08-29 10:38:00,
2015-08-29 06:43:00,64.0,48.0,30.03,South,180,1.6,1.6,56,0.00,,,0.00,VWS V15.00,2015-08-29 10:43:00,
2015-08-29 06:48:00,64.2,48.7,30.03,SSW,202,2.0,2.0,57,0.00,,,0.00,VWS V15.00,2015-08-29 10:48:00,
2015-08-29 06:53:00,64.2,48.7,30.03,SSW,202,1.6,1.6,57,0.00,,,0.00,VWS V15.00,2015-08-29 10:53:00,
2015-08-29 06:58:00,64.4,48.4,30.03,South,180,1.6,1.6,56,0.00,,,0.00,VWS V15.00,2015-08-29 10:58:00,
2015-08-29 07:03:00,64.4,48.4,30.03,SSW,202,0.0,0.0,56,0.00,,,0.00,VWS V15.00,2015-08-29 11:03:00,
2015-08-29 07:08:00,64.4,48.4,30.03,SSW,202,1.6,1.6,56,0.00,,,0.00,VWS V15.00,2015-08-29 11:08:00,
2015-08-29 07:13:00,64.2,48.7,30.03,SSW,202,0.9,0.9,57,0.00,,,0.00,VWS V15.00,2015-08-29 11:13:00,
2015-08-29 07:18:00,64.4,48.4,30.03,SSW,202,2.0,2.0,56,0.00,,,0.00,VWS V15.00,2015-08-29 11:18:00,
2015-08-29 07:23:00,64.4,48.4,30.03,SE,135,1.1,1.1,56,0.00,,,0.00,VWS V15.00,2015-08-29 11:23:00,
2015-08-29 07:28:00,64.4,48.4,30.03,SW,225,1.1,1.1,56,0.00,,,0.00,VWS V15.00,2015-08-29 11:28:00,
2015-08-29 07:33:00,64.4,48.4,30.03,South,180,0.0,0.0,56,0.00,,,0.00,VWS V15.00,2015-08-29 11:33:00,
2015-08-29 07:38:00,64.6,48.5,30.03,South,180,1.6,1.6,56,0.00,,,0.00,VWS V15.00,2015-08-29 11:38:00,
2015-08-29 07:43:00,64.8,49.2,30.03,SE,135,1.6,1.6,57,0.00,,,0.00,VWS V15.00,2015-08-29 11:43:00,
2015-08-29 07:48:00,64.9,49.4,30.03,South,180,0.0,0.0,57,0.00,,,0.00,VWS V15.00,2015-08-29 11:48:00,
2015-08-29 07:53:00,65.1,49.5,30.03,SE,135,1.3,1.3,57,0.00,,,0.00,VWS V15.00,2015-08-29 11:53:00,
2015-08-29 07:58:00,65.3,49.7,30.03,SE,135,1.6,1.6,57,0.00,,,0.00,VWS V15.00,2015-08-29 11:58:00,
2015-08-29 08:03:00,65.5,49.4,30.03,South,180,1.3,1.3,56,0.00,,,0.00,VWS V15.00,2015-08-29 12:03:00,
2015-08-29 08:08:00,65.5,49.4,30.03,South,180,2.2,2.2,56,0.00,,,0.00,VWS V15.00,2015-08-29 12:08:00,
2015-08-29 08:13:00,65.8,49.7,30.03,South,180,1.6,1.6,56,0.00,,,0.00,VWS V15.00,2015-08-29 12:13:00,
2015-08-29 08:18:00,66.2,49.6,30.03,South,180,1.6,1.6,55,0.00,,,0.00,VWS V15.00,2015-08-29 12:18:00,
2015-08-29 08:23:00,66.7,49.6,30.03,SW,225,3.1,3.1,54,0.00,,,0.00,VWS V15.00,2015-08-29 12:23:00,
2015-08-29 08:28:00,66.9,49.8,30.03,SSE,158,2.0,2.0,54,0.00,,,0.00,VWS V15.00,2015-08-29 12:28:00,
2015-08-29 08:33:00,67.3,49.6,30.03,SSW,202,2.2,2.2,53,0.00,,,0.00,VWS V15.00,2015-08-29 12:33:00,
2015-08-29 08:38:00,67.8,50.1,30.03,SSE,158,2.7,2.7,53,0.00,,,0.00,VWS V15.00,2015-08-29 12:38:00,
2015-08-29 08:43:00,68.4,50.1,30.03,SSW,202,3.6,3.6,52,0.00,,,0.00,VWS V15.00,2015-08-29 12:43:00,
2015-08-29 08:48:00,68.7,50.4,30.03,SW,225,3.8,3.8,52,0.00,,,0.00,VWS V15.00,2015-08-29 12:48:00,
2015-08-29 08:53:00,69.3,50.4,30.03,South,180,3.6,3.6,51,0.00,,,0.00,VWS V15.00,2015-08-29 12:53:00,
2015-08-29 08:58:00,69.8,50.3,30.03,SW,225,2.7,2.7,50,0.00,,,0.00,VWS V15.00,2015-08-29 12:58:00,
2015-08-29 09:03:00,70.0,50.5,30.03,SSW,202,2.7,2.7,50,0.00,,,0.00,VWS V15.00,2015-08-29 13:03:00,
2015-08-29 09:08:00,71.4,51.3,30.03,South,180,3.1,3.1,49,0.00,,,0.00,VWS V15.00,2015-08-29 13:08:00,
2015-08-29 09:13:00,72.7,51.9,30.03,SW,225,2.5,2.5,48,0.00,,,0.00,VWS V15.00,2015-08-29 13:13:00,
2015-08-29 09:18:00,73.4,52.5,30.03,SW,225,3.6,3.6,48,0.00,,,0.00,VWS V15.00,2015-08-29 13:18:00,
2015-08-29 09:23:00,73.9,51.9,30.03,SE,135,2.9,2.9,46,0.00,,,0.00,VWS V15.00,2015-08-29 13:23:00,
2015-08-29 09:28:00,73.6,52.1,30.03,SW,225,4.9,4.9,47,0.00,,,0.00,VWS V15.00,2015-08-29 13:28:00,
2015-08-29 09:33:00,73.6,52.1,30.03,South,180,4.3,4.3,47,0.00,,,0.00,VWS V15.00,2015-08-29 13:33:00,
2015-08-29 09:38:00,73.6,51.5,30.03,SW,225,5.6,5.6,46,0.00,,,0.00,VWS V15.00,2015-08-29 13:38:00,
2015-08-29 09:43:00,73.8,51.7,30.03,SW,225,4.9,4.9,46,0.00,,,0.00,VWS V15.00,2015-08-29 13:43:00,
2015-08-29 09:48:00,74.1,51.4,30.03,SSW,202,6.5,6.5,45,0.00,,,0.00,VWS V15.00,2015-08-29 13:48:00,
2015-08-29 09:53:00,74.1,51.4,30.03,SSW,202,3.8,3.8,45,0.00,,,0.00,VWS V15.00,2015-08-29 13:53:00,
2015-08-29 09:58:00,75.0,51.7,30.03,South,180,5.6,5.6,44,0.00,,,0.00,VWS V15.00,2015-08-29 13:58:00,
2015-08-29 10:03:00,76.1,52.0,30.03,SW,225,5.4,5.4,43,0.00,,,0.00,VWS V15.00,2015-08-29 14:03:00,
2015-08-29 10:08:00,76.6,52.5,30.03,SSW,202,7.6,7.6,43,0.00,,,0.00,VWS V15.00,2015-08-29 14:08:00,
2015-08-29 10:13:00,77.0,52.2,30.03,SW,225,6.0,6.0,42,0.00,,,0.00,VWS V15.00,2015-08-29 14:13:00,
2015-08-29 10:18:00,77.0,52.2,30.03,SW,225,6.3,6.3,42,0.00,,,0.00,VWS V15.00,2015-08-29 14:18:00,
2015-08-29 10:23:00,77.0,52.2,30.03,SSW,202,2.7,2.7,42,0.00,,,0.00,VWS V15.00,2015-08-29 14:23:00,
2015-08-29 10:28:00,77.0,52.2,30.03,SSW,202,6.3,6.3,42,0.00,,,0.00,VWS V15.00,2015-08-29 14:28:00,
2015-08-29 10:33:00,77.0,52.2,30.03,SSW,202,5.4,5.4,42,0.00,,,0.00,VWS V15.00,2015-08-29 14:33:00,
2015-08-29 10:38:00,79.2,52.8,30.03,SW,225,11.0,11.0,40,0.00,,,0.00,VWS V15.00,2015-08-29 14:38:00,
2015-08-29 10:43:00,79.2,52.8,30.03,SW,225,7.4,7.4,40,0.00,,,0.00,VWS V15.00,2015-08-29 14:43:00,
2015-08-29 10:48:00,79.9,53.4,30.03,SW,225,3.6,3.6,40,0.00,,,0.00,VWS V15.00,2015-08-29 14:48:00,
2015-08-29 10:53:00,79.9,53.4,30.03,South,180,4.0,4.0,40,0.00,,,0.00,VWS V15.00,2015-08-29 14:53:00,
2015-08-29 10:58:00,81.0,53.0,30.03,SSW,202,5.6,5.6,38,0.00,,,0.00,VWS V15.00,2015-08-29 14:58:00,
2015-08-29 11:03:00,81.0,53.7,30.03,West,270,5.8,5.8,39,0.00,,,0.00,VWS V15.00,2015-08-29 15:03:00,
2015-08-29 11:08:00,81.5,53.5,30.03,SW,225,6.3,6.3,38,0.00,,,0.00,VWS V15.00,2015-08-29 15:08:00,
2015-08-29 11:13:00,82.6,53.0,30.03,WSW,248,4.3,4.3,36,0.00,,,0.00,VWS V15.00,2015-08-29 15:13:00,
2015-08-29 11:18:00,82.6,53.0,30.03,WSW,248,4.9,4.9,36,0.00,,,0.00,VWS V15.00,2015-08-29 15:18:00,
2015-08-29 11:23:00,82.6,53.0,30.03,SW,225,5.8,5.8,36,0.00,,,0.00,VWS V15.00,2015-08-29 15:23:00,
2015-08-29 11:28:00,82.6,53.0,30.03,NNW,338,3.6,3.6,36,0.00,,,0.00,VWS V15.00,2015-08-29 15:28:00,
2015-08-29 11:33:00,82.6,53.0,30.03,WSW,248,2.9,2.9,36,0.00,,,0.00,VWS V15.00,2015-08-29 15:33:00,
2015-08-29 11:38:00,83.8,53.3,30.03,South,180,5.8,5.8,35,0.00,,,0.00,VWS V15.00,2015-08-29 15:38:00,
2015-08-29 11:43:00,83.8,53.3,30.03,WNW,292,6.0,6.0,35,0.00,,,0.00,VWS V15.00,2015-08-29 15:43:00,
2015-08-29 11:48:00,85.5,52.3,30.03,SW,225,3.8,3.8,32,0.00,,,0.00,VWS V15.00,2015-08-29 15:48:00,
2015-08-29 11:53:00,85.6,52.4,30.03,SSW,202,6.0,6.0,32,0.00,,,0.00,VWS V15.00,2015-08-29 15:53:00,
2015-08-29 11:58:00,85.6,52.4,30.03,SW,225,4.3,4.3,32,0.00,,,0.00,VWS V15.00,2015-08-29 15:58:00,
2015-08-29 12:03:00,85.6,52.4,30.03,SW,225,2.9,2.9,32,0.00,,,0.00,VWS V15.00,2015-08-29 16:03:00,
2015-08-29 12:08:00,85.5,51.4,30.03,SW,225,3.8,3.8,31,0.00,,,0.00,VWS V15.00,2015-08-29 16:08:00,
2015-08-29 12:13:00,86.7,51.6,30.03,SW,225,4.3,4.3,30,0.00,,,0.00,VWS V15.00,2015-08-29 16:13:00,
2015-08-29 12:18:00,86.7,51.6,30.03,West,270,7.2,7.2,30,0.00,,,0.00,VWS V15.00,2015-08-29 16:18:00,
2015-08-29 12:23:00,86.7,51.6,30.03,West,270,6.5,6.5,30,0.00,,,0.00,VWS V15.00,2015-08-29 16:23:00,
2015-08-29 12:28:00,86.7,51.6,30.03,West,270,6.5,6.5,30,0.00,,,0.00,VWS V15.00,2015-08-29 16:28:00,
2015-08-29 12:33:00,86.7,51.6,30.03,West,270,6.5,6.5,30,0.00,,,0.00,VWS V15.00,2015-08-29 16:33:00,
2015-08-29 12:38:00,86.7,51.6,30.03,SW,225,4.3,4.3,30,0.00,,,0.00,VWS V15.00,2015-08-29 16:38:00,
2015-08-29 12:43:00,86.2,50.2,30.03,SW,225,4.9,4.9,29,0.00,,,0.00,VWS V15.00,2015-08-29 16:43:00,
2015-08-29 12:48:00,86.2,50.2,30.03,SSW,202,4.0,4.0,29,0.00,,,0.00,VWS V15.00,2015-08-29 16:48:00,
2015-08-29 12:53:00,86.2,50.2,30.03,SW,225,6.0,6.0,29,0.00,,,0.00,VWS V15.00,2015-08-29 16:53:00,
2015-08-29 12:58:00,86.2,50.2,30.03,WSW,248,4.7,4.7,29,0.00,,,0.00,VWS V15.00,2015-08-29 16:58:00,
2015-08-29 13:03:00,86.2,50.2,30.03,SSE,158,3.6,3.6,29,0.00,,,0.00,VWS V15.00,2015-08-29 17:03:00,
2015-08-29 13:08:00,87.1,51.0,30.03,SSE,158,3.6,3.6,29,0.00,,,0.00,VWS V15.00,2015-08-29 17:08:00,
2015-08-29 13:13:00,87.1,50.1,30.03,SSE,158,3.6,3.6,28,0.00,,,0.00,VWS V15.00,2015-08-29 17:13:00,
2015-08-29 13:18:00,87.4,51.3,30.03,WNW,292,4.3,4.3,29,0.00,,,0.00,VWS V15.00,2015-08-29 17:18:00,
2015-08-29 13:23:00,87.3,50.2,30.03,SW,225,3.8,3.8,28,0.00,,,0.00,VWS V15.00,2015-08-29 17:23:00,
2015-08-29 13:28:00,87.3,50.2,30.03,West,270,2.9,2.9,28,0.00,,,0.00,VWS V15.00,2015-08-29 17:28:00,
2015-08-29 13:33:00,87.3,51.2,30.03,SW,225,4.7,4.7,29,0.00,,,0.00,VWS V15.00,2015-08-29 17:33:00,
2015-08-29 13:38:00,87.1,51.0,30.03,WNW,292,3.4,3.4,29,0.00,,,0.00,VWS V15.00,2015-08-29 17:38:00,
2015-08-29 13:43:00,86.4,49.4,30.03,WSW,248,3.1,3.1,28,0.00,,,0.00,VWS V15.00,2015-08-29 17:43:00,
2015-08-29 13:48:00,87.1,51.0,30.03,SW,225,1.6,1.6,29,0.00,,,0.00,VWS V15.00,2015-08-29 17:48:00,
2015-08-29 13:53:00,87.1,51.0,30.03,West,270,3.1,3.1,29,0.00,,,0.00,VWS V15.00,2015-08-29 17:53:00,
2015-08-29 13:58:00,86.5,49.6,30.00,WSW,248,1.3,1.3,28,0.00,,,0.00,VWS V15.00,2015-08-29 17:58:00,
2015-08-29 14:03:00,86.7,50.7,30.00,SW,225,5.4,5.4,29,0.00,,,0.00,VWS V15.00,2015-08-29 18:03:00,
2015-08-29 14:08:00,86.5,50.5,30.00,SW,225,3.1,3.1,29,0.00,,,0.00,VWS V15.00,2015-08-29 18:08:00,
2015-08-29 14:13:00,87.6,50.5,30.00,SW,225,5.4,5.4,28,0.00,,,0.00,VWS V15.00,2015-08-29 18:13:00,
2015-08-29 14:18:00,88.2,51.0,30.00,SSW,202,2.2,2.2,28,0.00,,,0.00,VWS V15.00,2015-08-29 18:18:00,
2015-08-29 14:23:00,87.6,50.5,30.00,WSW,248,1.6,1.6,28,0.00,,,0.00,VWS V15.00,2015-08-29 18:23:00,
2015-08-29 14:28:00,86.2,50.2,30.00,West,270,7.6,7.6,29,0.00,,,0.00,VWS V15.00,2015-08-29 18:28:00,
2015-08-29 14:33:00,86.2,50.2,30.00,West,270,5.6,5.6,29,0.00,,,0.00,VWS V15.00,2015-08-29 18:33:00,
2015-08-29 14:38:00,86.5,49.6,30.00,WSW,248,4.9,4.9,28,0.00,,,0.00,VWS V15.00,2015-08-29 18:38:00,
2015-08-29 14:43:00,88.0,49.8,30.00,SSW,202,2.7,2.7,27,0.00,,,0.00,VWS V15.00,2015-08-29 18:43:00,
2015-08-29 14:48:00,88.3,49.1,30.00,SSW,202,2.7,2.7,26,0.00,,,0.00,VWS V15.00,2015-08-29 18:48:00,
2015-08-29 14:53:00,88.9,48.5,30.00,WNW,292,2.5,2.5,25,0.00,,,0.00,VWS V15.00,2015-08-29 18:53:00,
2015-08-29 14:58:00,88.3,47.0,30.00,West,270,1.3,1.3,24,0.00,,,0.00,VWS V15.00,2015-08-29 18:58:00,
2015-08-29 15:03:00,89.6,48.1,30.00,WSW,248,3.1,3.1,24,0.00,,,0.00,VWS V15.00,2015-08-29 19:03:00,
2015-08-29 15:09:00,89.6,48.1,30.00,WNW,292,8.5,8.5,24,0.00,,,0.00,VWS V15.00,2015-08-29 19:09:00,
2015-08-29 15:14:00,90.7,47.8,30.00,WNW,292,8.5,8.5,23,0.00,,,0.00,VWS V15.00,2015-08-29 19:14:00,
2015-08-29 15:19:00,89.2,47.8,30.00,WNW,292,4.9,4.9,24,0.00,,,0.00,VWS V15.00,2015-08-29 19:19:00,
2015-08-29 15:24:00,88.0,47.8,30.00,WSW,248,4.0,4.0,25,0.00,,,0.00,VWS V15.00,2015-08-29 19:24:00,
2015-08-29 15:29:00,88.0,47.8,30.00,West,270,4.0,4.0,25,0.00,,,0.00,VWS V15.00,2015-08-29 19:29:00,
2015-08-29 15:34:00,88.5,48.2,30.00,SW,225,3.8,3.8,25,0.00,,,0.00,VWS V15.00,2015-08-29 19:34:00,
2015-08-29 15:39:00,88.5,48.2,30.00,WNW,292,7.4,7.4,25,0.00,,,0.00,VWS V15.00,2015-08-29 19:39:00,
2015-08-29 15:44:00,87.8,46.5,30.00,West,270,3.1,3.1,24,0.00,,,0.00,VWS V15.00,2015-08-29 19:44:00,
2015-08-29 15:49:00,88.9,48.5,30.00,WSW,248,2.9,2.9,25,0.00,,,0.00,VWS V15.00,2015-08-29 19:49:00,
2015-08-29 15:54:00,91.6,47.4,30.00,WSW,248,3.4,3.4,22,0.00,,,0.00,VWS V15.00,2015-08-29 19:54:00,
2015-08-29 15:59:00,90.3,47.5,30.00,WSW,248,3.4,3.4,23,0.00,,,0.00,VWS V15.00,2015-08-29 19:59:00,
2015-08-29 16:04:00,89.2,46.6,30.00,West,270,4.0,4.0,23,0.00,,,0.00,VWS V15.00,2015-08-29 20:04:00,
2015-08-29 16:09:00,88.0,45.6,30.00,WSW,248,2.7,2.7,23,0.00,,,0.00,VWS V15.00,2015-08-29 20:09:00,
2015-08-29 16:14:00,87.3,45.0,29.97,WSW,248,2.7,2.7,23,0.00,,,0.00,VWS V15.00,2015-08-29 20:14:00,
2015-08-29 16:19:00,87.3,46.1,29.97,WSW,248,2.7,2.7,24,0.00,,,0.00,VWS V15.00,2015-08-29 20:19:00,
2015-08-29 16:24:00,87.4,46.2,29.97,WSW,248,2.7,2.7,24,0.00,,,0.00,VWS V15.00,2015-08-29 20:24:00,
2015-08-29 16:29:00,88.3,45.9,29.97,SSW,202,3.8,3.8,23,0.00,,,0.00,VWS V15.00,2015-08-29 20:29:00,
2015-08-29 16:34:00,88.5,46.0,29.97,SW,225,3.1,3.1,23,0.00,,,0.00,VWS V15.00,2015-08-29 20:34:00,
2015-08-29 16:39:00,90.0,49.5,29.97,South,180,2.9,2.9,25,0.00,,,0.00,VWS V15.00,2015-08-29 20:39:00,
2015-08-29 16:44:00,91.0,48.1,29.97,South,180,7.2,7.2,23,0.00,,,0.00,VWS V15.00,2015-08-29 20:44:00,
2015-08-29 16:49:00,90.5,47.7,29.97,SE,135,0.9,0.9,23,0.00,,,0.00,VWS V15.00,2015-08-29 20:49:00,
2015-08-29 16:54:00,91.9,47.7,29.97,SW,225,3.6,3.6,22,0.00,,,0.00,VWS V15.00,2015-08-29 20:54:00,
2015-08-29 16:59:00,91.8,46.3,29.97,South,180,2.7,2.7,21,0.00,,,0.00,VWS V15.00,2015-08-29 20:59:00,
2015-08-29 17:04:00,90.3,46.3,29.97,WSW,248,0.9,0.9,22,0.00,,,0.00,VWS V15.00,2015-08-29 21:04:00,
2015-08-29 17:09:00,90.7,46.7,29.97,South,180,2.9,2.9,22,0.00,,,0.00,VWS V15.00,2015-08-29 21:09:00,
2015-08-29 17:14:00,92.1,47.8,29.97,South,180,2.7,2.7,22,0.00,,,0.00,VWS V15.00,2015-08-29 21:14:00,
2015-08-29 17:19:00,91.8,46.3,29.97,SW,225,2.9,2.9,21,0.00,,,0.00,VWS V15.00,2015-08-29 21:19:00,
2015-08-29 17:24:00,90.7,45.4,29.97,SSW,202,1.1,1.1,21,0.00,,,0.00,VWS V15.00,2015-08-29 21:24:00,
2015-08-29 17:29:00,89.2,46.6,29.97,SW,225,5.8,5.8,23,0.00,,,0.00,VWS V15.00,2015-08-29 21:29:00,
2015-08-29 17:34:00,88.2,45.7,29.97,SE,135,3.8,3.8,23,0.00,,,0.00,VWS V15.00,2015-08-29 21:34:00,
2015-08-29 17:39:00,83.7,48.1,30.00,SE,135,4.7,4.7,29,0.00,,,0.00,VWS V15.00,2015-08-29 21:39:00,
2015-08-29 17:44:00,83.3,47.8,30.00,ESE,112,8.5,8.5,29,0.00,,,0.00,VWS V15.00,2015-08-29 21:44:00,
2015-08-29 17:49:00,83.3,47.8,30.00,SE,135,6.0,6.0,29,0.00,,,0.00,VWS V15.00,2015-08-29 21:49:00,
2015-08-29 17:54:00,83.3,47.8,30.00,SE,135,10.5,10.5,29,0.00,,,0.00,VWS V15.00,2015-08-29 21:54:00,
2015-08-29 17:59:00,83.3,47.8,30.00,South,180,2.7,2.7,29,0.00,,,0.00,VWS V15.00,2015-08-29 21:59:00,
2015-08-29 18:04:00,81.3,47.0,30.00,WSW,248,2.9,2.9,30,0.00,,,0.00,VWS V15.00,2015-08-29 22:04:00,
2015-08-29 18:09:00,81.1,46.8,29.97,SSE,158,7.8,7.8,30,0.00,,,0.00,VWS V15.00,2015-08-29 22:09:00,
2015-08-29 18:14:00,83.1,47.6,29.97,ESE,112,2.9,2.9,29,0.00,,,0.00,VWS V15.00,2015-08-29 22:14:00,
2015-08-29 18:19:00,82.2,46.8,29.97,SE,135,2.5,2.5,29,0.00,,,0.00,VWS V15.00,2015-08-29 22:19:00,
2015-08-29 18:24:00,82.0,47.6,29.97,SE,135,3.1,3.1,30,0.00,,,0.00,VWS V15.00,2015-08-29 22:24:00,
2015-08-29 18:29:00,82.0,47.6,29.97,SE,135,4.7,4.7,30,0.00,,,0.00,VWS V15.00,2015-08-29 22:29:00,
2015-08-29 18:34:00,81.7,47.3,29.97,SE,135,1.1,1.1,30,0.00,,,0.00,VWS V15.00,2015-08-29 22:34:00,
2015-08-29 18:39:00,81.7,47.3,29.97,WSW,248,3.1,3.1,30,0.00,,,0.00,VWS V15.00,2015-08-29 22:39:00,
2015-08-29 18:44:00,81.3,47.8,29.97,SSW,202,2.2,2.2,31,0.00,,,0.00,VWS V15.00,2015-08-29 22:44:00,
2015-08-29 18:49:00,81.1,47.7,29.97,SSE,158,1.6,1.6,31,0.00,,,0.00,VWS V15.00,2015-08-29 22:49:00,
2015-08-29 18:54:00,81.0,47.5,29.97,South,180,1.3,1.3,31,0.00,,,0.00,VWS V15.00,2015-08-29 22:54:00,
2015-08-29 18:59:00,80.8,47.4,29.97,South,180,2.0,2.0,31,0.00,,,0.00,VWS V15.00,2015-08-29 22:59:00,
2015-08-29 19:04:00,80.4,47.9,29.97,SSW,202,2.5,2.5,32,0.00,,,0.00,VWS V15.00,2015-08-29 23:04:00,
2015-08-29 19:09:00,79.7,47.3,29.94,SSW,202,2.0,2.0,32,0.00,,,0.00,VWS V15.00,2015-08-29 23:09:00,
2015-08-29 19:14:00,79.2,47.6,29.94,SSW,202,2.7,2.7,33,0.00,,,0.00,VWS V15.00,2015-08-29 23:14:00,
2015-08-29 19:19:00,78.8,47.3,29.94,SW,225,1.6,1.6,33,0.00,,,0.00,VWS V15.00,2015-08-29 23:19:00,
2015-08-29 19:24:00,78.8,48.1,29.94,South,180,0.9,0.9,34,0.00,,,0.00,VWS V15.00,2015-08-29 23:24:00,
2015-08-29 19:29:00,78.6,48.7,29.94,SSW,202,1.3,1.3,35,0.00,,,0.00,VWS V15.00,2015-08-29 23:29:00,
2015-08-29 19:34:00,78.6,48.7,29.94,SSW,202,1.6,1.6,35,0.00,,,0.00,VWS V15.00,2015-08-29 23:34:00,
2015-08-29 19:39:00,78.6,48.7,29.94,SSW,202,2.0,2.0,35,0.00,,,0.00,VWS V15.00,2015-08-29 23:39:00,
2015-08-29 19:44:00,78.3,49.1,29.94,SE,135,1.6,1.6,36,0.00,,,0.00,VWS V15.00,2015-08-29 23:44:00,
2015-08-29 19:49:00,77.9,48.8,29.94,SSE,158,1.1,1.1,36,0.00,,,0.00,VWS V15.00,2015-08-29 23:49:00,
2015-08-29 19:54:00,77.7,49.4,29.94,SSW,202,1.1,1.1,37,0.00,,,0.00,VWS V15.00,2015-08-29 23:54:00,
2015-08-29 19:59:00,77.4,49.1,29.94,SW,225,0.0,0.0,37,0.00,,,0.00,VWS V15.00,2015-08-29 23:59:00,
2015-08-29 20:04:00,77.2,48.9,29.94,SSW,202,2.0,2.0,37,0.00,,,0.00,VWS V15.00,2015-08-30 00:04:00,
2015-08-29 20:09:00,77.2,48.9,29.94,SW,225,0.0,0.0,37,0.00,,,0.00,VWS V15.00,2015-08-30 00:09:00,